Hlavní strana
METAR-TAF:

METAR-TAF

Letiště :

Letiště Kunovice

Uherské Hradiště, Česká republika

zeměpisná šířka: 49-01-46N, zeměpisná délka: 017-26-23E, výška: 177 m

Aktuální stav počasí

Zpráva byla vytvořena před 4 hodinami a 5 minutami, v 11:00 UTC
Severní vítr 9 kt
Teplota 9°C
Vlhkost vzduchu 43%
Tlak 1025 hPa
Viditelnost 10 km a více
Polojasno ve výšce 4700 ft

METAR: LKKU 191100Z 01009KT 9999 SCT047 09/M03 Q1025

Čas: 16:05 (15:05 UTC)


TAF: chybějící

Stav a předpovědi počasí z více než 4 000 letišť (zprávy METAR a TAF).

Červené a žluté tečky na mapě představují dostupné meteorologické stanice.

Když kurzor umístíte na tečku, zobrazí se název stanice.

Pak kliknutím zobrazíte stav a předpověď počasí.

Chcete-li změnit mapu, kliknutím na zelené tlačítko se znaménkem +mapu přiblížíte, kliknutím na zelené tlačítko se znaménkem – mapu oddálíte a kliknutím na zelené šipky přejdete na sousední mapy.


METAR-TAF: